Location: Newark
(33.6333°S, 78.8500°W)
Time: 12:03:17
(UTC+00:00)

N. Korean satellite - Visible Passes

Search period start: 21 August 2019 00:00
Search period end: 31 August 2019 00:00
Orbit: 457 x 507 km, 97.2° (Epoch: 20 August)

Date Brightness Start Highest point End Pass type
(mag) Time Alt. Az. Time Alt. Az. Time Alt. Az.
21 Aug 7.8 10:12:14 10° NNE 10:15:31 41° ESE 10:18:49 10° S visible
21 Aug 6.8 23:15:24 10° S 23:19:01 78° WSW 23:22:39 10° NNW visible
22 Aug 9.3 09:48:00 10° ENE 09:50:29 19° ESE 09:53:00 10° SSE visible
22 Aug 8.0 11:21:23 10° NW 11:23:46 17° W 11:26:10 10° SW visible
23 Aug 6.9 10:55:16 10° N 10:58:31 39° W 11:01:49 10° SSW visible
23 Aug 9.5 23:59:15 10° SSW 00:01:54 19° WSW 00:04:32 10° WNW visible
24 Aug 6.5 10:29:54 10° NNE 10:33:21 81° ESE 10:36:50 10° S visible
24 Aug 8.0 23:33:25 10° S 23:36:52 41° WSW 23:40:20 10° NW visible
25 Aug 8.3 10:05:08 10° NE 10:08:15 32° ESE 10:11:25 10° S visible
26 Aug 9.6 09:41:11 10° ENE 09:43:15 15° ESE 09:45:21 10° SSE visible
26 Aug 7.7 11:13:43 10° NNW 11:16:27 22° W 11:19:12 10° SW visible
27 Aug 10.0 00:18:21 10° SW 00:19:38 12° WSW 00:20:55 10° W visible
27 Aug 6.6 10:47:51 10° N 10:51:12 51° W 10:54:37 10° SSW visible
27 Aug 9.2 23:51:41 10° SSW 23:54:39 24° WSW 23:57:39 10° NW visible
28 Aug 6.9 10:22:40 10° NNE 10:26:03 62° ESE 10:29:31 10° S visible
28 Aug 7.6 23:26:02 10° S 23:29:37 53° WSW 23:33:13 10° NNW visible
29 Aug 8.7 09:58:04 10° NE 10:00:59 26° ESE 10:03:57 10° SSE visible
30 Aug 9.8 09:34:30 10° E 09:36:00 12° ESE 09:37:32 10° SE visible
30 Aug 7.4 11:06:08 10° NNW 11:09:06 27° W 11:12:08 10° SW visible
